Tracking 30264 objects as of 16-Feb-2025
HD Live streaming from Space Station
objects crossing your sky now

CZ-4B DEB

Track CZ-4B DEB now!
10-day predictions


NORAD ID: 29215
Int'l Code: 2002-024F
Perigee: 848.0 km
Apogee: 1,211.2 km
Inclination: 98.8 °
Period: 105.6 minutes
Semi major axis: 7400 km
RCS: 0.0014 m2 (small)
Launch date: May 15, 2002
Source: People's Republic of China (PRC)
Launch site: Taiyaun Space Center, China (TSC)

Note: This is SATELLITE DEBRIS
Your satellite tracking list
Your tracking list is empty




NASA's NSSDC Master Catalog

Two Line Element Set (TLE):
1 29215U 02024F   25046.13854328  .00000442  00000-0  49299-3 0  9994
2 29215  98.7936 111.6290 0245347  89.7810 302.1427 13.63647166113895
Source of the keplerian elements: AFSPC